START_TIME,STEP,MOV.,H8,t_acc.,H43,t_acc.,M25,t_acc.,H9,t_acc.
1979-07-20 21:00:29.250 ,0,0,0.,12.0,0.,12.0,0.,12.0,0.,12.0
1979-07-20 21:00:41.250 ,0,0,0.,12.0,0.,12.0,0.,12.0,0.,12.0
1979-07-20 21:00:53.250 ,0,0,0.,12.0,0.,12.0,0.,12.0,0.,12.0
1979-07-20 21:01:05.250 ,0,0,0.,12.0,0.,12.0,0.,12.0,0.,12.0
1979-07-20 21:01:17.250 ,0,0,0.,12.0,0.,12.0,0.,12.0,0.,12.0
1979-07-20 21:01:29.250 ,0,0,0.,12.0,0.,12.0,0.,12.0,0.,12.0
1979-07-20 21:01:41.250 ,1,0,0.,12.0,0.,12.0,0.,12.0,0.,12.0
1979-07-20 21:01:53.250 ,1,0,0.,12.0,0.,12.0,0.,12.0,0.,12.0
1979-07-20 21:02:05.250 ,1,0,0.,12.0,0.,12.0,0.,12.0,0.,12.0
1979-07-20 21:02:17.250 ,1,0,0.,12.0,0.,12.0,0.,12.0,0.,12.0
1979-07-20 21:02:29.250 ,2,0,0.,12.0,0.,12.0,0.,12.0,0.,12.0
1979-07-20 21:02:41.250 ,2,0,0.,12.0,0.,12.0,0.,12.0,0.,12.0
1979-07-20 21:02:53.250 ,2,0,0.,12.0,0.,12.0,0.,12.0,0.,12.0
1979-07-20 21:03:05.250 ,2,0,0.,12.0,0.,12.0,0.,12.0,0.,12.0
1979-07-20 21:03:17.250 ,3,0,0.,12.0,0.,12.0,0.,12.0,0.,12.0
1979-07-20 21:03:29.250 ,3,0,0.,12.0,0.,12.0,0.,12.0,0.,12.0
1979-07-20 21:03:41.250 ,3,0,0.,12.0,0.,12.0,0.,12.0,0.,12.0
1979-07-20 21:03:53.250 ,3,0,0.,12.0,0.,12.0,0.,12.0,0.,12.0
1979-07-20 21:04:05.250 ,4,0,0.,12.0,0.,12.0,0.,12.0,0.,12.0
1979-07-20 21:04:17.250 ,4,0,0.,12.0,0.,12.0,0.,12.0,0.,12.0
1979-07-20 21:04:29.250 ,4,0,0.,12.0,0.,12.0,0.,12.0,0.,12.0
1979-07-20 21:04:41.250 ,4,0,0.,12.0,0.,12.0,0.,12.0,0.,12.0
1979-07-20 21:04:53.250 ,5,0,0.,12.0,0.,12.0,0.,12.0,0.,12.0
1979-07-20 21:05:05.250 ,5,0,0.,12.0,0.,12.0,0.,12.0,0.,12.0
1979-07-20 21:05:17.250 ,5,0,0.,12.0,0.,12.0,0.,12.0,0.,12.0
1979-07-20 21:05:29.250 ,5,0,0.,12.0,0.,12.0,0.,12.0,0.,12.0
1979-07-20 21:05:41.250 ,6,0,0.,12.0,0.,12.0,0.,12.0,0.,12.0
1979-07-20 21:05:53.250 ,6,0,0.,12.0,0.,12.0,0.,12.0,0.,12.0
1979-07-20 21:06:05.250 ,6,0,0.,12.0,0.,12.0,0.,12.0,0.,12.0
1979-07-20 21:06:17.250 ,6,0,0.,12.0,0.,12.0,0.,12.0,0.,12.0
1979-07-20 21:06:29.250 ,7,0,0.,12.0,0.,12.0,0.,12.0,0.,12.0
1979-07-20 21:06:41.250 ,7,0,0.,12.0,0.,12.0,0.,12.0,0.,12.0
1979-07-20 21:06:53.250 ,7,0,0.,12.0,0.,12.0,0.,12.0,0.,12.0
1979-07-20 21:07:05.250 ,7,0,0.,12.0,0.,12.0,0.,12.0,0.,12.0
1979-07-20 21:07:17.250 ,3,1,0.,12.0,0.,12.0,0.,12.0,0.,12.0
1979-07-20 21:07:29.250 ,3,1,0.,12.0,0.,12.0,0.,12.0,0.,12.0
1979-07-20 21:07:41.250 ,0,1,0.,12.0,0.,12.0,0.,12.0,0.,12.0
1979-07-20 21:07:53.250 ,0,1,0.,12.0,0.,12.0,0.,12.0,0.,12.0
1979-07-20 21:08:05.250 ,4,1,0.,12.0,0.,12.0,0.,12.0,0.,12.0
1979-07-20 21:08:17.250 ,4,1,0.,12.0,0.,12.0,0.,12.0,0.,12.0
1979-07-20 21:08:29.250 ,7,1,0.,12.0,0.,12.0,0.,12.0,0.,12.0
1979-07-20 21:08:41.250 ,7,1,0.,12.0,0.,12.0,0.,12.0,0.,12.0
1979-07-20 21:08:53.250 ,3,1,0.,12.0,0.,12.0,0.,12.0,0.,12.0
1979-07-20 21:09:05.250 ,3,1,0.,12.0,0.,12.0,0.,12.0,0.,12.0
1979-07-20 21:09:17.250 ,0,1,0.,12.0,0.,12.0,0.,12.0,0.,12.0
1979-07-20 21:09:29.250 ,0,1,0.,12.0,0.,12.0,0.,12.0,0.,12.0
1979-07-20 21:09:41.250 ,4,1,0.,12.0,0.,12.0,0.,12.0,0.,12.0
1979-07-20 21:09:53.250 ,4,1,0.,12.0,0.,12.0,0.,12.0,0.,12.0
1979-07-20 21:10:05.250 ,7,1,0.,12.0,0.,12.0,0.,12.0,0.,12.0
1979-07-20 21:10:17.250 ,7,1,0.,12.0,0.,12.0,0.,12.0,0.,12.0
1979-07-20 21:10:29.250 ,3,1,0.,12.0,0.,12.0,0.,12.0,0.,12.0
1979-07-20 21:10:41.250 ,3,1,0.,12.0,0.,12.0,0.,12.0,0.,12.0
1979-07-20 21:10:53.250 ,0,1,0.,12.0,0.,12.0,0.,12.0,0.,12.0
1979-07-20 21:11:05.250 ,0,1,0.,12.0,0.,12.0,0.,12.0,0.,12.0
1979-07-20 21:11:17.250 ,4,1,0.,12.0,0.,12.0,0.,12.0,0.,12.0
1979-07-20 21:11:29.250 ,4,1,0.,12.0,0.,12.0,0.,12.0,0.,12.0
1979-07-20 21:11:41.250 ,7,1,0.,12.0,0.,12.0,0.,12.0,0.,12.0
1979-07-20 21:11:53.250 ,7,1,0.,12.0,0.,12.0,0.,12.0,0.,12.0
1979-07-20 21:12:05.250 ,3,1,0.,12.0,0.,12.0,0.,12.0,0.,12.0
1979-07-20 21:12:17.250 ,3,1,0.,12.0,0.,12.0,0.,12.0,0.,12.0
1979-07-20 21:12:29.250 ,0,1,0.,12.0,0.,12.0,0.,12.0,0.,12.0
1979-07-20 21:12:41.250 ,0,1,0.,12.0,0.,12.0,0.,12.0,0.,12.0
1979-07-20 21:12:53.250 ,4,1,0.,12.0,0.,12.0,0.,12.0,0.,12.0
1979-07-20 21:13:05.250 ,4,1,0.,12.0,0.,12.0,0.,12.0,0.,12.0
1979-07-20 21:13:17.250 ,7,1,0.,12.0,0.,12.0,0.,12.0,0.,12.0
1979-07-20 21:13:29.250 ,7,1,0.,12.0,0.,12.0,0.,12.0,0.,12.0
1979-07-20 21:13:41.250 ,3,1,0.,12.0,0.,12.0,0.,12.0,0.,12.0
1979-07-20 21:13:53.250 ,3,1,0.,12.0,0.,12.0,0.,12.0,0.,12.0
1979-07-20 21:14:05.250 ,0,1,0.,12.0,0.,12.0,0.,12.0,0.,12.0
1979-07-20 21:14:17.250 ,0,1,0.,12.0,0.,12.0,0.,12.0,0.,12.0
1979-07-20 21:14:29.250 ,4,1,0.,12.0,0.,12.0,0.,12.0,0.,12.0
1979-07-20 21:14:41.250 ,4,1,0.,12.0,0.,12.0,0.,12.0,0.,12.0
1979-07-20 21:14:53.250 ,7,1,0.,12.0,0.,12.0,0.,12.0,0.,12.0
1979-07-20 21:15:05.250 ,7,1,0.,12.0,0.,12.0,0.,12.0,0.,12.0
1979-07-20 21:15:17.250 ,3,1,0.,12.0,0.,12.0,0.,12.0,0.,12.0
1979-07-20 21:15:29.250 ,3,1,0.,12.0,0.,12.0,0.,12.0,0.,12.0
1979-07-20 21:15:41.250 ,0,1,0.,12.0,0.,12.0,0.,12.0,0.,12.0
1979-07-20 21:15:53.250 ,0,1,0.,12.0,0.,12.0,0.,12.0,0.,12.0
1979-07-20 21:16:05.250 ,4,1,0.,12.0,0.,12.0,0.,12.0,0.,12.0
1979-07-20 21:16:17.250 ,4,1,0.,12.0,0.,12.0,0.,12.0,0.,12.0
1979-07-20 21:16:29.250 ,7,1,0.,12.0,0.,12.0,0.,12.0,0.,12.0
1979-07-20 21:16:41.250 ,7,1,0.,12.0,0.,12.0,0.,12.0,0.,12.0
1979-07-20 21:16:53.250 ,3,1,0.,12.0,0.,12.0,0.,12.0,0.,12.0
1979-07-20 21:17:05.250 ,3,1,0.,12.0,0.,12.0,0.,12.0,0.,12.0
1979-07-20 21:17:17.250 ,0,1,0.,12.0,0.,12.0,0.,12.0,0.,12.0
1979-07-20 21:17:29.250 ,0,1,0.,12.0,0.,12.0,0.,12.0,0.,12.0
1979-07-20 21:17:41.250 ,0,0,0.,12.0,0.,12.0,0.,12.0,0.,12.0
1979-07-20 21:17:53.250 ,0,0,0.,12.0,0.,12.0,0.,12.0,0.,12.0
1979-07-20 21:18:05.250 ,0,0,0.,12.0,0.,12.0,0.,12.0,0.,12.0
1979-07-20 21:18:17.250 ,0,0,0.,12.0,0.,12.0,0.,12.0,0.,12.0
1979-07-20 21:18:29.250 ,5,0,0.,12.0,0.,12.0,0.,12.0,0.,12.0
1979-07-20 21:18:41.250 ,5,0,0.,12.0,0.,12.0,0.,12.0,0.,12.0
1979-07-20 21:18:53.250 ,5,0,0.,12.0,0.,12.0,0.,12.0,0.,12.0
1979-07-20 21:19:05.250 ,5,0,0.,12.0,0.,12.0,0.,12.0,0.,12.0
1979-07-20 21:19:17.250 ,4,0,0.,12.0,0.,12.0,0.,12.0,0.,12.0
1979-07-20 21:19:29.250 ,4,0,0.,12.0,0.,12.0,0.,12.0,0.,12.0
1979-07-20 21:19:41.250 ,4,0,0.,12.0,0.,12.0,0.,12.0,0.,12.0
1979-07-20 21:19:53.250 ,4,0,0.,12.0,0.,12.0,0.,12.0,0.,12.0
1979-07-20 21:20:05.250 ,3,0,0.,12.0,0.,12.0,0.,12.0,0.,12.0
1979-07-20 21:20:17.250 ,3,0,0.,12.0,0.,12.0,0.,12.0,0.,12.0
1979-07-20 21:20:29.250 ,3,0,0.,12.0,0.,12.0,0.,12.0,0.,12.0
1979-07-20 21:20:41.250 ,3,0,0.,12.0,0.,12.0,0.,12.0,0.,12.0
1979-07-20 21:20:53.250 ,2,0,0.,12.0,0.,12.0,0.,12.0,0.,12.0
1979-07-20 21:21:05.250 ,2,0,0.,12.0,0.,12.0,0.,12.0,0.,12.0
1979-07-20 21:21:17.250 ,2,0,0.,12.0,0.,12.0,0.,12.0,0.,12.0
1979-07-20 21:21:29.250 ,2,0,0.,12.0,0.,12.0,0.,12.0,0.,12.0
1979-07-20 21:21:41.250 ,1,0,0.,12.0,0.,12.0,0.,12.0,0.,12.0
1979-07-20 21:21:53.250 ,1,0,0.,12.0,0.,12.0,0.,12.0,0.,12.0
1979-07-20 21:22:05.250 ,1,0,0.,12.0,0.,12.0,0.,12.0,0.,12.0
1979-07-20 21:22:17.250 ,1,0,0.,12.0,0.,12.0,0.,12.0,0.,12.0
1979-07-20 21:22:29.250 ,0,0,1.,12.0,0.,12.0,0.,12.0,0.,12.0
1979-07-20 21:22:41.250 ,0,0,0.,12.0,0.,12.0,0.,12.0,0.,12.0
1979-07-20 21:22:53.250 ,0,0,0.,12.0,0.,12.0,0.,12.0,0.,12.0
1979-07-20 21:23:05.250 ,0,0,0.,12.0,0.,12.0,0.,12.0,0.,12.0
1979-07-20 21:23:17.250 ,0,0,0.,12.0,0.,12.0,0.,12.0,0.,12.0
1979-07-20 21:23:29.250 ,0,0,0.,12.0,0.,12.0,0.,12.0,0.,12.0
1979-07-20 21:23:41.250 ,0,0,0.,12.0,0.,12.0,0.,12.0,0.,12.0
1979-07-20 21:23:53.250 ,0,0,0.,12.0,0.,12.0,0.,12.0,0.,12.0
1979-07-20 21:24:05.250 ,1,0,0.,12.0,0.,12.0,0.,12.0,0.,12.0
1979-07-20 21:24:17.250 ,1,0,0.,12.0,0.,12.0,0.,12.0,0.,12.0
1979-07-20 21:24:29.250 ,1,0,0.,12.0,0.,12.0,0.,12.0,0.,12.0
1979-07-20 21:24:41.250 ,1,0,0.,12.0,0.,12.0,0.,12.0,0.,12.0
1979-07-20 21:24:53.250 ,2,0,0.,12.0,0.,12.0,0.,12.0,0.,12.0
1979-07-20 21:25:05.250 ,2,0,0.,12.0,0.,12.0,0.,12.0,0.,12.0
1979-07-20 21:25:17.250 ,2,0,0.,12.0,0.,12.0,0.,12.0,0.,12.0
1979-07-20 21:25:29.250 ,2,0,0.,12.0,0.,12.0,0.,12.0,0.,12.0
1979-07-20 21:25:41.250 ,3,0,0.,12.0,0.,12.0,0.,12.0,0.,12.0
1979-07-20 21:25:53.250 ,3,0,0.,12.0,0.,12.0,0.,12.0,0.,12.0
1979-07-20 21:26:05.250 ,3,0,0.,12.0,0.,12.0,0.,12.0,0.,12.0
1979-07-20 21:26:17.250 ,3,0,0.,12.0,0.,12.0,0.,12.0,0.,12.0
1979-07-20 21:26:29.250 ,4,0,0.,12.0,0.,12.0,0.,12.0,0.,12.0
1979-07-20 21:26:41.250 ,4,0,0.,12.0,0.,12.0,0.,12.0,0.,12.0
1979-07-20 21:26:53.250 ,4,0,0.,12.0,0.,12.0,0.,12.0,0.,12.0
1979-07-20 21:27:05.250 ,4,0,0.,12.0,0.,12.0,0.,12.0,0.,12.0
1979-07-20 21:27:17.250 ,0,0,0.,12.0,0.,12.0,0.,12.0,0.,12.0
1979-07-20 21:27:29.250 ,0,0,,0,,0,,0,,0
1979-07-20 21:27:41.250 ,0,0,,0,,0,,0,,0
1979-07-20 21:27:53.250 ,0,0,,0,,0,,0,,0
1979-07-20 21:28:05.250 ,0,0,0.,12.0,0.,12.0,0.,12.0,0.,12.0
1979-07-20 21:28:17.250 ,0,0,0.,12.0,0.,12.0,0.,12.0,0.,12.0
1979-07-20 21:28:29.250 ,0,0,0.,12.0,0.,12.0,0.,12.0,0.,12.0
1979-07-20 21:28:41.250 ,0,0,1.,12.0,0.,12.0,0.,12.0,0.,12.0
1979-07-20 21:28:53.250 ,7,0,0.,12.0,0.,12.0,0.,12.0,0.,12.0
1979-07-20 21:29:05.250 ,7,0,0.,12.0,0.,12.0,0.,12.0,0.,12.0
1979-07-20 21:29:17.250 ,7,0,0.,12.0,0.,12.0,0.,12.0,0.,12.0
1979-07-20 21:29:29.250 ,7,0,0.,12.0,0.,12.0,0.,12.0,0.,12.0
1979-07-20 21:29:41.250 ,7,0,0.,12.0,0.,12.0,0.,12.0,0.,12.0
1979-07-20 21:29:53.250 ,7,0,0.,12.0,0.,12.0,0.,12.0,0.,12.0
1979-07-20 21:30:05.250 ,7,0,0.,12.0,0.,12.0,0.,12.0,0.,12.0
1979-07-20 21:30:17.250 ,7,0,0.,12.0,0.,12.0,0.,12.0,0.,12.0
1979-07-20 21:30:29.250 ,6,0,0.,12.0,0.,12.0,0.,12.0,0.,12.0
1979-07-20 21:30:41.250 ,6,0,0.,12.0,0.,12.0,0.,12.0,0.,12.0
1979-07-20 21:30:53.250 ,6,0,0.,12.0,0.,12.0,0.,12.0,0.,12.0
1979-07-20 21:31:05.250 ,6,0,0.,12.0,0.,12.0,0.,12.0,0.,12.0
1979-07-20 21:31:17.250 ,5,0,0.,12.0,0.,12.0,0.,12.0,0.,12.0
1979-07-20 21:31:29.250 ,5,0,0.,12.0,0.,12.0,0.,12.0,0.,12.0
1979-07-20 21:31:41.250 ,5,0,0.,12.0,0.,12.0,0.,12.0,0.,12.0
1979-07-20 21:31:53.250 ,5,0,0.,12.0,0.,12.0,0.,12.0,0.,12.0
1979-07-20 21:32:05.250 ,4,0,0.,12.0,0.,12.0,0.,12.0,0.,12.0
1979-07-20 21:32:17.250 ,4,0,0.,12.0,0.,12.0,0.,12.0,0.,12.0
1979-07-20 21:32:29.250 ,4,0,0.,12.0,0.,12.0,0.,12.0,0.,12.0
1979-07-20 21:32:41.250 ,4,0,0.,12.0,0.,12.0,0.,12.0,0.,12.0
1979-07-20 21:32:53.250 ,3,0,0.,12.0,0.,12.0,0.,12.0,0.,12.0
1979-07-20 21:33:05.250 ,3,0,0.,12.0,0.,12.0,0.,12.0,0.,12.0
1979-07-20 21:33:17.250 ,3,0,0.,12.0,0.,12.0,0.,12.0,0.,12.0
1979-07-20 21:33:29.250 ,3,0,0.,12.0,0.,12.0,0.,12.0,0.,12.0
1979-07-20 21:33:41.250 ,2,0,0.,12.0,0.,12.0,0.,12.0,0.,12.0
1979-07-20 21:33:53.250 ,2,0,0.,12.0,0.,12.0,0.,12.0,0.,12.0
1979-07-20 21:34:05.250 ,2,0,0.,12.0,0.,12.0,0.,12.0,0.,12.0
1979-07-20 21:34:17.250 ,2,0,1.,12.0,0.,12.0,0.,12.0,0.,12.0
1979-07-20 21:34:29.250 ,1,0,0.,12.0,0.,12.0,0.,12.0,0.,12.0
1979-07-20 21:34:41.250 ,1,0,0.,12.0,0.,12.0,0.,12.0,0.,12.0
1979-07-20 21:34:53.250 ,1,0,0.,12.0,0.,12.0,0.,12.0,0.,12.0
1979-07-20 21:35:05.250 ,1,0,0.,12.0,0.,12.0,0.,12.0,0.,12.0
1979-07-20 21:35:17.250 ,0,0,0.,12.0,0.,12.0,0.,12.0,0.,12.0
1979-07-20 21:35:29.250 ,0,0,0.,12.0,0.,12.0,0.,12.0,0.,12.0
1979-07-20 21:35:41.250 ,0,0,0.,12.0,0.,12.0,0.,12.0,0.,12.0
1979-07-20 21:35:53.250 ,0,0,0.,12.0,0.,12.0,0.,12.0,0.,12.0
1979-07-20 21:36:05.250 ,0,0,0.,12.0,0.,12.0,0.,12.0,0.,12.0
1979-07-20 21:36:17.250 ,0,0,0.,12.0,0.,12.0,0.,12.0,0.,12.0
1979-07-20 21:36:29.250 ,0,0,0.,12.0,0.,12.0,0.,12.0,0.,12.0
1979-07-20 21:36:41.250 ,0,0,0.,12.0,0.,12.0,0.,12.0,0.,12.0
1979-07-20 21:36:53.250 ,1,0,0.,12.0,0.,12.0,0.,12.0,0.,12.0
1979-07-20 21:37:05.250 ,1,0,0.,12.0,0.,12.0,0.,12.0,0.,12.0
1979-07-20 21:37:17.250 ,1,0,0.,12.0,0.,12.0,0.,12.0,0.,12.0
1979-07-20 21:37:29.250 ,1,0,0.,12.0,0.,12.0,0.,12.0,0.,12.0
1979-07-20 21:37:41.250 ,2,0,0.,12.0,0.,12.0,0.,12.0,0.,12.0
1979-07-20 21:37:53.250 ,2,0,0.,12.0,0.,12.0,0.,12.0,0.,12.0
1979-07-20 21:38:05.250 ,2,0,0.,12.0,0.,12.0,0.,12.0,0.,12.0
1979-07-20 21:38:17.250 ,2,0,0.,12.0,0.,12.0,0.,12.0,0.,12.0
1979-07-20 21:38:29.250 ,3,0,0.,12.0,0.,12.0,0.,12.0,0.,12.0
1979-07-20 21:38:41.250 ,3,0,0.,12.0,0.,12.0,0.,12.0,0.,12.0
1979-07-20 21:38:53.250 ,3,0,0.,12.0,0.,12.0,0.,12.0,0.,12.0
1979-07-20 21:39:05.250 ,3,0,0.,12.0,0.,12.0,0.,12.0,0.,12.0
1979-07-20 21:39:17.250 ,4,0,0.,12.0,0.,12.0,0.,12.0,0.,12.0
1979-07-20 21:39:29.250 ,4,0,0.,12.0,0.,12.0,0.,12.0,0.,12.0
1979-07-20 21:39:41.250 ,4,0,0.,12.0,0.,12.0,0.,12.0,0.,12.0
1979-07-20 21:39:53.250 ,4,0,0.,12.0,0.,12.0,0.,12.0,0.,12.0
1979-07-20 21:40:05.250 ,5,0,0.,12.0,0.,12.0,0.,12.0,0.,12.0
1979-07-20 21:40:17.250 ,5,0,0.,12.0,0.,12.0,0.,12.0,0.,12.0
1979-07-20 21:40:29.250 ,5,0,1.,12.0,0.,12.0,0.,12.0,0.,12.0
1979-07-20 21:40:41.250 ,5,0,0.,12.0,0.,12.0,0.,12.0,0.,12.0
1979-07-20 21:40:53.250 ,6,0,0.,12.0,0.,12.0,0.,12.0,0.,12.0
1979-07-20 21:41:05.250 ,6,0,0.,12.0,0.,12.0,0.,12.0,0.,12.0
1979-07-20 21:41:17.250 ,6,0,0.,12.0,0.,12.0,0.,12.0,0.,12.0
1979-07-20 21:41:29.250 ,6,0,0.,12.0,0.,12.0,0.,12.0,0.,12.0
1979-07-20 21:41:41.250 ,7,0,0.,12.0,0.,12.0,0.,12.0,0.,12.0
1979-07-20 21:41:53.250 ,7,0,0.,12.0,0.,12.0,0.,12.0,0.,12.0
1979-07-20 21:42:05.250 ,7,0,0.,12.0,0.,12.0,0.,12.0,0.,12.0
1979-07-20 21:42:17.250 ,7,0,0.,12.0,0.,12.0,0.,12.0,0.,12.0
1979-07-20 21:42:29.250 ,7,0,0.,12.0,0.,12.0,0.,12.0,0.,12.0
1979-07-20 21:42:41.250 ,7,0,0.,12.0,0.,12.0,0.,12.0,0.,12.0
1979-07-20 21:42:53.250 ,7,0,0.,12.0,0.,12.0,0.,12.0,0.,12.0
1979-07-20 21:43:05.250 ,7,0,0.,12.0,0.,12.0,0.,12.0,0.,12.0
1979-07-20 21:43:17.250 ,6,0,0.,12.0,0.,12.0,0.,12.0,0.,12.0
1979-07-20 21:43:29.250 ,6,0,0.,12.0,0.,12.0,0.,12.0,0.,12.0
1979-07-20 21:43:41.250 ,6,0,0.,12.0,0.,12.0,0.,12.0,0.,12.0
1979-07-20 21:43:53.250 ,6,0,0.,12.0,0.,12.0,0.,12.0,0.,12.0
1979-07-20 21:44:05.250 ,5,0,0.,12.0,0.,12.0,0.,12.0,0.,12.0
1979-07-20 21:44:17.250 ,5,0,0.,12.0,0.,12.0,0.,12.0,0.,12.0
1979-07-20 21:44:29.250 ,5,0,0.,12.0,0.,12.0,0.,12.0,0.,12.0
1979-07-20 21:44:41.250 ,5,0,0.,12.0,0.,12.0,0.,12.0,0.,12.0
1979-07-20 21:44:53.250 ,4,0,0.,12.0,0.,12.0,0.,12.0,0.,12.0
1979-07-20 21:45:05.250 ,4,0,0.,12.0,0.,12.0,0.,12.0,0.,12.0
1979-07-20 21:45:17.250 ,4,0,0.,12.0,0.,12.0,0.,12.0,0.,12.0
1979-07-20 21:45:29.250 ,4,0,0.,12.0,0.,12.0,0.,12.0,0.,12.0
1979-07-20 21:45:41.250 ,3,0,0.,12.0,0.,12.0,0.,12.0,0.,12.0
1979-07-20 21:45:53.250 ,3,0,0.,12.0,0.,12.0,0.,12.0,0.,12.0
1979-07-20 21:46:05.250 ,3,0,0.,12.0,0.,12.0,0.,12.0,0.,12.0
1979-07-20 21:46:17.250 ,3,0,0.,12.0,0.,12.0,0.,12.0,0.,12.0
1979-07-20 21:46:29.250 ,2,0,0.,12.0,0.,12.0,0.,12.0,0.,12.0
1979-07-20 21:46:41.250 ,2,0,0.,12.0,0.,12.0,0.,12.0,0.,12.0
1979-07-20 21:46:53.250 ,2,0,0.,12.0,0.,12.0,0.,12.0,0.,12.0
1979-07-20 21:47:05.250 ,2,0,0.,12.0,0.,12.0,0.,12.0,0.,12.0
1979-07-20 21:47:17.250 ,1,0,0.,12.0,0.,12.0,0.,12.0,0.,12.0
1979-07-20 21:47:29.250 ,1,0,0.,12.0,0.,12.0,0.,12.0,0.,12.0
1979-07-20 21:47:41.250 ,1,0,0.,12.0,0.,12.0,0.,12.0,0.,12.0
1979-07-20 21:47:53.250 ,1,0,0.,12.0,0.,12.0,0.,12.0,0.,12.0
1979-07-20 21:48:05.250 ,0,0,0.,12.0,0.,12.0,0.,12.0,0.,12.0
1979-07-20 21:48:17.250 ,0,0,0.,12.0,0.,12.0,0.,12.0,0.,12.0
1979-07-20 21:48:29.250 ,0,0,0.,12.0,0.,12.0,0.,12.0,0.,12.0
1979-07-20 21:48:41.250 ,0,0,0.,12.0,0.,12.0,0.,12.0,0.,12.0
1979-07-20 21:48:53.250 ,0,0,0.,12.0,0.,12.0,0.,12.0,0.,12.0
1979-07-20 21:49:05.250 ,0,0,0.,12.0,0.,12.0,0.,12.0,0.,12.0
1979-07-20 21:49:17.250 ,0,0,0.,12.0,0.,12.0,0.,12.0,0.,12.0
1979-07-20 21:49:29.250 ,0,0,0.,12.0,0.,12.0,0.,12.0,0.,12.0
1979-07-20 21:49:41.250 ,1,0,0.,12.0,0.,12.0,0.,12.0,0.,12.0
1979-07-20 21:49:53.250 ,1,0,0.,12.0,0.,12.0,0.,12.0,0.,12.0
1979-07-20 21:50:05.250 ,1,0,0.,12.0,0.,12.0,0.,12.0,0.,12.0
1979-07-20 21:50:17.250 ,1,0,0.,12.0,0.,12.0,0.,12.0,0.,12.0
1979-07-20 21:50:29.250 ,2,0,0.,12.0,0.,12.0,0.,12.0,0.,12.0
1979-07-20 21:50:41.250 ,2,0,0.,12.0,0.,12.0,0.,12.0,0.,12.0
1979-07-20 21:50:53.250 ,2,0,0.,12.0,0.,12.0,0.,12.0,0.,12.0
1979-07-20 21:51:05.250 ,2,0,0.,12.0,0.,12.0,0.,12.0,0.,12.0
1979-07-20 21:51:17.250 ,3,0,0.,12.0,0.,12.0,0.,12.0,0.,12.0
1979-07-20 21:51:29.250 ,3,0,0.,12.0,0.,12.0,0.,12.0,0.,12.0
1979-07-20 21:51:41.250 ,3,0,0.,12.0,0.,12.0,0.,12.0,0.,12.0
1979-07-20 21:51:53.250 ,3,0,0.,12.0,0.,12.0,0.,12.0,0.,12.0
1979-07-20 21:52:05.250 ,4,0,0.,12.0,0.,12.0,0.,12.0,0.,12.0
1979-07-20 21:52:17.250 ,4,0,0.,12.0,0.,12.0,0.,12.0,0.,12.0
1979-07-20 21:52:29.250 ,4,0,0.,12.0,0.,12.0,0.,12.0,0.,12.0
1979-07-20 21:52:41.250 ,4,0,0.,12.0,0.,12.0,0.,12.0,0.,12.0
1979-07-20 21:52:53.250 ,5,0,0.,12.0,0.,12.0,0.,12.0,0.,12.0
1979-07-20 21:53:05.250 ,5,0,0.,12.0,0.,12.0,0.,12.0,0.,12.0
1979-07-20 21:53:17.250 ,5,0,0.,12.0,0.,12.0,0.,12.0,0.,12.0
1979-07-20 21:53:29.250 ,5,0,0.,12.0,0.,12.0,0.,12.0,0.,12.0
1979-07-20 21:53:41.250 ,6,0,0.,12.0,0.,12.0,0.,12.0,0.,12.0
1979-07-20 21:53:53.250 ,6,0,0.,12.0,0.,12.0,0.,12.0,0.,12.0
1979-07-20 21:54:05.250 ,6,0,0.,12.0,0.,12.0,0.,12.0,0.,12.0
1979-07-20 21:54:17.250 ,6,0,0.,12.0,0.,12.0,0.,12.0,0.,12.0
1979-07-20 21:54:29.250 ,7,0,0.,12.0,0.,12.0,0.,12.0,0.,12.0
1979-07-20 21:54:41.250 ,7,0,0.,12.0,0.,12.0,0.,12.0,0.,12.0
1979-07-20 21:54:53.250 ,7,0,0.,12.0,0.,12.0,0.,12.0,0.,12.0
1979-07-20 21:55:05.250 ,7,0,0.,12.0,0.,12.0,0.,12.0,0.,12.0
1979-07-20 21:55:17.250 ,3,1,0.,12.0,0.,12.0,0.,12.0,0.,12.0
1979-07-20 21:55:29.250 ,3,1,0.,12.0,0.,12.0,0.,12.0,0.,12.0
1979-07-20 21:55:41.250 ,0,1,0.,12.0,0.,12.0,0.,12.0,0.,12.0
1979-07-20 21:55:53.250 ,0,1,0.,12.0,0.,12.0,0.,12.0,0.,12.0
1979-07-20 21:56:05.250 ,4,1,0.,12.0,0.,12.0,0.,12.0,0.,12.0
1979-07-20 21:56:17.250 ,4,1,0.,12.0,0.,12.0,0.,12.0,0.,12.0
1979-07-20 21:56:29.250 ,7,1,0.,12.0,0.,12.0,0.,12.0,0.,12.0
1979-07-20 21:56:41.250 ,7,1,0.,12.0,0.,12.0,0.,12.0,0.,12.0
1979-07-20 21:56:53.250 ,3,1,0.,12.0,0.,12.0,0.,12.0,0.,12.0
1979-07-20 21:57:05.250 ,3,1,0.,12.0,0.,12.0,0.,12.0,0.,12.0
1979-07-20 21:57:17.250 ,1,1,0.,12.0,0.,12.0,0.,12.0,0.,12.0
1979-07-20 21:57:29.250 ,1,1,,0,,0,,0,,0
1979-07-20 21:57:41.250 ,4,1,0.,12.0,0.,12.0,0.,12.0,0.,12.0
1979-07-20 21:57:53.250 ,4,1,0.,12.0,0.,12.0,0.,12.0,0.,12.0
1979-07-20 21:58:05.250 ,7,1,0.,12.0,0.,12.0,0.,12.0,0.,12.0
1979-07-20 21:58:17.250 ,7,1,0.,12.0,0.,12.0,0.,12.0,0.,12.0
1979-07-20 21:58:29.250 ,3,1,0.,12.0,0.,12.0,0.,12.0,0.,12.0
1979-07-20 21:58:41.250 ,3,1,0.,12.0,0.,12.0,0.,12.0,0.,12.0
1979-07-20 21:58:53.250 ,0,1,0.,12.0,0.,12.0,0.,12.0,0.,12.0
1979-07-20 21:59:05.250 ,0,1,0.,12.0,0.,12.0,0.,12.0,0.,12.0
1979-07-20 21:59:17.250 ,4,1,0.,12.0,0.,12.0,0.,12.0,0.,12.0
1979-07-20 21:59:29.250 ,4,1,0.,12.0,0.,12.0,0.,12.0,0.,12.0
1979-07-20 21:59:41.250 ,7,1,0.,12.0,0.,12.0,0.,12.0,0.,12.0
1979-07-20 21:59:53.250 ,7,1,0.,12.0,0.,12.0,0.,12.0,0.,12.0
1979-07-20 22:00:05.250 ,3,1,0.,12.0,0.,12.0,0.,12.0,0.,12.0
1979-07-20 22:00:17.250 ,3,1,0.,12.0,0.,12.0,0.,12.0,0.,12.0
1979-07-20 22:00:29.250 ,0,1,0.,12.0,0.,12.0,0.,12.0,0.,12.0
1979-07-20 22:00:41.250 ,0,1,0.,12.0,0.,12.0,0.,12.0,0.,12.0
1979-07-20 22:00:53.250 ,4,1,0.,12.0,0.,12.0,0.,12.0,0.,12.0
1979-07-20 22:01:05.250 ,4,1,0.,12.0,0.,12.0,0.,12.0,0.,12.0
1979-07-20 22:01:17.250 ,7,1,0.,12.0,0.,12.0,0.,12.0,0.,12.0
1979-07-20 22:01:29.250 ,7,1,0.,12.0,0.,12.0,0.,12.0,0.,12.0
1979-07-20 22:01:41.250 ,3,1,0.,12.0,0.,12.0,0.,12.0,0.,12.0
1979-07-20 22:01:53.250 ,3,1,0.,12.0,0.,12.0,0.,12.0,0.,12.0
1979-07-20 22:02:05.250 ,0,1,0.,12.0,0.,12.0,0.,12.0,0.,12.0
1979-07-20 22:02:17.250 ,0,1,0.,12.0,0.,12.0,0.,12.0,0.,12.0
1979-07-20 22:02:29.240 ,4,1,0.,12.0,0.,12.0,0.,12.0,0.,12.0
1979-07-20 22:02:41.250 ,4,1,0.,12.0,0.,12.0,0.,12.0,0.,12.0
1979-07-20 22:02:53.240 ,7,1,0.,12.0,0.,12.0,0.,12.0,0.,12.0
1979-07-20 22:03:05.240 ,7,1,0.,12.0,0.,12.0,0.,12.0,0.,12.0
1979-07-20 22:03:17.240 ,3,1,0.,12.0,0.,12.0,0.,12.0,0.,12.0
1979-07-20 22:03:29.250 ,3,1,0.,12.0,0.,12.0,0.,12.0,0.,12.0
1979-07-20 22:03:41.240 ,0,1,0.,12.0,0.,12.0,0.,12.0,0.,12.0
1979-07-20 22:03:53.250 ,0,1,0.,12.0,0.,12.0,0.,12.0,0.,12.0
1979-07-20 22:04:05.240 ,4,1,0.,12.0,0.,12.0,0.,12.0,0.,12.0
1979-07-20 22:04:17.240 ,4,1,0.,12.0,0.,12.0,0.,12.0,0.,12.0
1979-07-20 22:04:29.240 ,7,1,0.,12.0,0.,12.0,0.,12.0,0.,12.0
1979-07-20 22:04:41.240 ,7,1,0.,12.0,0.,12.0,0.,12.0,0.,12.0
1979-07-20 22:04:53.240 ,3,1,0.,12.0,0.,12.0,0.,12.0,0.,12.0
1979-07-20 22:05:05.240 ,3,1,0.,12.0,0.,12.0,0.,12.0,0.,12.0
1979-07-20 22:05:17.240 ,0,1,0.,12.0,0.,12.0,0.,12.0,0.,12.0
1979-07-20 22:05:29.240 ,0,1,0.,12.0,0.,12.0,0.,12.0,0.,12.0
1979-07-20 22:05:41.240 ,0,0,0.,12.0,0.,12.0,0.,12.0,0.,12.0
1979-07-20 22:05:53.240 ,0,0,0.,12.0,0.,12.0,0.,12.0,0.,12.0
1979-07-20 22:06:05.240 ,0,0,0.,12.0,0.,12.0,0.,12.0,0.,12.0
1979-07-20 22:06:17.240 ,0,0,0.,12.0,0.,12.0,0.,12.0,0.,12.0
1979-07-20 22:06:29.240 ,5,0,0.,12.0,0.,12.0,0.,12.0,0.,12.0
1979-07-20 22:06:41.240 ,5,0,0.,12.0,0.,12.0,0.,12.0,0.,12.0
1979-07-20 22:06:53.240 ,5,0,0.,12.0,0.,12.0,0.,12.0,0.,12.0
1979-07-20 22:07:05.240 ,5,0,0.,12.0,0.,12.0,0.,12.0,0.,12.0
1979-07-20 22:07:17.240 ,4,0,0.,12.0,0.,12.0,0.,12.0,0.,12.0
1979-07-20 22:07:29.240 ,4,0,0.,12.0,0.,12.0,0.,12.0,0.,12.0
1979-07-20 22:07:41.240 ,4,0,0.,12.0,0.,12.0,0.,12.0,0.,12.0
1979-07-20 22:07:53.240 ,4,0,0.,12.0,0.,12.0,0.,12.0,0.,12.0
1979-07-20 22:08:05.240 ,3,0,0.,12.0,0.,12.0,0.,12.0,0.,12.0
1979-07-20 22:08:17.240 ,3,0,0.,12.0,0.,12.0,0.,12.0,0.,12.0
1979-07-20 22:08:29.240 ,3,0,0.,12.0,0.,12.0,0.,12.0,0.,12.0
1979-07-20 22:08:41.240 ,3,0,0.,12.0,0.,12.0,0.,12.0,0.,12.0
1979-07-20 22:08:53.240 ,2,0,0.,12.0,0.,12.0,0.,12.0,0.,12.0
1979-07-20 22:09:05.240 ,2,0,0.,12.0,0.,12.0,0.,12.0,0.,12.0
1979-07-20 22:09:17.240 ,2,0,0.,12.0,0.,12.0,0.,12.0,0.,12.0
1979-07-20 22:09:29.240 ,2,0,0.,12.0,0.,12.0,0.,12.0,0.,12.0
1979-07-20 22:09:41.240 ,1,0,0.,12.0,0.,12.0,0.,12.0,0.,12.0
1979-07-20 22:09:53.240 ,1,0,0.,12.0,0.,12.0,0.,12.0,0.,12.0
1979-07-20 22:10:05.240 ,1,0,0.,12.0,0.,12.0,0.,12.0,0.,12.0
1979-07-20 22:10:17.240 ,1,0,0.,12.0,0.,12.0,0.,12.0,0.,12.0
1979-07-20 22:10:29.240 ,0,0,0.,12.0,0.,12.0,0.,12.0,0.,12.0
1979-07-20 22:10:41.240 ,0,0,0.,12.0,0.,12.0,0.,12.0,0.,12.0
1979-07-20 22:10:53.240 ,0,0,0.,12.0,0.,12.0,0.,12.0,0.,12.0
1979-07-20 22:11:05.240 ,0,0,0.,12.0,0.,12.0,0.,12.0,0.,12.0
1979-07-20 22:11:17.240 ,0,0,0.,12.0,0.,12.0,0.,12.0,0.,12.0
1979-07-20 22:11:29.240 ,0,0,0.,12.0,0.,12.0,0.,12.0,0.,12.0
1979-07-20 22:11:41.240 ,0,0,0.,12.0,0.,12.0,0.,12.0,0.,12.0
1979-07-20 22:11:53.240 ,0,0,0.,12.0,0.,12.0,0.,12.0,0.,12.0
1979-07-20 22:12:05.240 ,1,0,0.,12.0,0.,12.0,0.,12.0,0.,12.0
1979-07-20 22:12:17.240 ,1,0,0.,12.0,0.,12.0,0.,12.0,0.,12.0
1979-07-20 22:12:29.240 ,1,0,0.,12.0,0.,12.0,0.,12.0,0.,12.0
1979-07-20 22:12:41.240 ,1,0,0.,12.0,0.,12.0,0.,12.0,0.,12.0
1979-07-20 22:12:53.240 ,2,0,0.,12.0,0.,12.0,0.,12.0,0.,12.0
1979-07-20 22:13:05.240 ,2,0,0.,12.0,0.,12.0,0.,12.0,0.,12.0
1979-07-20 22:13:17.240 ,2,0,0.,12.0,0.,12.0,0.,12.0,0.,12.0
1979-07-20 22:13:29.240 ,2,0,0.,12.0,0.,12.0,0.,12.0,0.,12.0
1979-07-20 22:13:41.240 ,3,0,0.,12.0,0.,12.0,0.,12.0,0.,12.0
1979-07-20 22:13:53.240 ,3,0,0.,12.0,0.,12.0,0.,12.0,0.,12.0
1979-07-20 22:14:05.240 ,3,0,0.,12.0,0.,12.0,0.,12.0,0.,12.0
1979-07-20 22:14:17.240 ,3,0,0.,12.0,0.,12.0,0.,12.0,0.,12.0
1979-07-20 22:14:29.240 ,4,0,0.,12.0,0.,12.0,0.,12.0,0.,12.0
1979-07-20 22:14:41.240 ,4,0,0.,12.0,0.,12.0,0.,12.0,0.,12.0
1979-07-20 22:14:53.240 ,4,0,0.,12.0,0.,12.0,0.,12.0,0.,12.0
1979-07-20 22:15:05.240 ,4,0,0.,12.0,0.,12.0,0.,12.0,0.,12.0
1979-07-20 22:15:17.240 ,5,0,0.,12.0,0.,12.0,0.,12.0,0.,12.0
1979-07-20 22:15:29.240 ,5,0,0.,12.0,0.,12.0,0.,12.0,0.,12.0
1979-07-20 22:15:41.240 ,5,0,0.,12.0,0.,12.0,0.,12.0,0.,12.0
1979-07-20 22:15:53.240 ,5,0,0.,12.0,0.,12.0,0.,12.0,0.,12.0
1979-07-20 22:16:05.240 ,6,0,0.,12.0,0.,12.0,0.,12.0,0.,12.0
1979-07-20 22:16:17.240 ,6,0,0.,12.0,0.,12.0,0.,12.0,0.,12.0
1979-07-20 22:16:29.240 ,6,0,0.,12.0,0.,12.0,0.,12.0,0.,12.0
1979-07-20 22:16:41.240 ,6,0,0.,12.0,0.,12.0,0.,12.0,0.,12.0
1979-07-20 22:16:53.240 ,7,0,0.,12.0,0.,12.0,0.,12.0,0.,12.0
1979-07-20 22:17:05.240 ,7,0,0.,12.0,0.,12.0,0.,12.0,0.,12.0
1979-07-20 22:17:17.240 ,7,0,0.,12.0,0.,12.0,0.,12.0,0.,12.0
1979-07-20 22:17:29.240 ,7,0,0.,12.0,0.,12.0,0.,12.0,0.,12.0
1979-07-20 22:17:41.240 ,7,0,0.,12.0,0.,12.0,0.,12.0,0.,12.0